Notices

What's New in latest Release from April 7th, 2021:

- Updated Glossary, including Speed of Maximum Gust, and Total Hourly Precipitation

- Updated national and regional climate services offices contacts and prices information

- Addition of station inventory lists for 1981-2010, 1971-2000, and 1961-1990 Normals.

If you haven't already, please take our survey and provide feedback about our website: https://eccc.sondage-survey.ca/f/LanguageSelection.aspx?s=442ca660-fcf1-47c0-95a9-59707d6fd709

Hourly Data Report for December 15, 2020

SHEARWATER RCS
NOVA SCOTIA
Current Station Operator: ECCC - MSC

44°37'47.000" N
63°30'48.000" W
24.00 m
8205092
71264
AAW

Download Data

Hourly Data (December 2020)
Hourly Data Report for December 15, 2020
TIME
LST
Temp Definition
°C
Dew Point Definition
°C
Rel Hum Definition
%
Precip. Amount Definition
mm

Wind Dir Definition
10's deg

Wind Spd Definition
km/h
Visibility Definition
km
Stn Press Definition
kPa
Hmdx Definition


Wind Chill Definition


Weather Definition


00:00 1.8 1.0 94 0.2 0 1   99.84     LegendNANA
01:00 1.8 1.0 95 0.0 35 6   99.69     LegendNANA
02:00 2.0 1.2 95 0.0 31 7   99.66     LegendNANA
03:00 2.0 0.6 91 0.0 29 11   99.69     LegendNANA
04:00 2.0 0.6 90 0.0 28 12   99.72     LegendNANA
05:00 1.7 -0.5 85 0.0 28 15   99.74     LegendNANA
06:00 1.1 -2.0 80 0.0 28 18   99.84     LegendNANA
07:00 -0.6 -6.0 67 0.0 29 30   99.96   -7 LegendNANA
08:00 -0.6 -4.7 74 0.2 28 17   100.03   -6 LegendNANA
09:00 -0.8 -4.1 78 0.0 29 18   100.10   -6 LegendNANA
10:00 -0.3 -5.2 70 0.0 28 24   100.16   -6 LegendNANA
11:00 -0.1 -4.4 73 0.0 27 20   100.20   -5 LegendNANA
12:00 -0.7 -5.4 70 0.2 28 25   100.21   -7 LegendNANA
13:00 0.1 -5.8 65 0.0 28 28   100.24     LegendNANA
14:00 0.0 -5.6 66 0.0 28 25   100.33   -6 LegendNANA
15:00 -1.6 -7.7 63 0.0 28 28   100.41   -8 LegendNANA
16:00 -1.7 -7.9 63 0.0 29 23   100.52   -8 LegendNANA
17:00 -2.7 -9.3 61 0.0 29 28   100.65   -10 LegendNANA
18:00 -3.1 -9.5 61 0.0 28 27   100.74   -10 LegendNANA
19:00 -4.4 -11.7 57 0.0 29 30   100.91   -12 LegendNANA
20:00 -5.0 -11.3 61 0.0 30 26   101.04   -12 LegendNANA
21:00 -5.8 -11.6 64 0.0 29 27   101.13   -14 LegendNANA
22:00 -6.7 -13.0 61 0.0 29 26   101.24   -15 LegendNANA
23:00 -7.3 -12.5 66 0.0 29 23   101.33   -15 LegendNANA

Notes on Data Quality.

Legend

  • E = Estimated
  • M = Missing
  • NA = Not Available*
  • [empty] = Indicates an unobserved value
Date modified: